Tracking 28790 objects as of 18-Apr-2024
HD Live streaming from Space Station
objects crossing your sky now

ARIANE 5 R/B

Track ARIANE 5 R/B now!


NORAD ID: 37208
Int'l Code: 2010-056C
Perigee: 267.0 km
Apogee: 30,141.5 km
Inclination: 2.8 °
Period: 525.6 minutes
Semi major axis: 21575 km
RCS: 23.4894 m2 (large)
Launch date: October 28, 2010
Source: France (FR)
Launch site: FRENCH GUIANA (FRGUI)

Note: This is a ROCKET BODY
Your satellite tracking list
Your tracking list is empty




NASA's NSSDC Master Catalog

Two Line Element Set (TLE):
1 37208U 10056C   24108.78942903  .00004244  00000-0  11149-2 0  9991
2 37208   2.8450  22.9815 6923339 113.2164 330.3630  2.73949073123492
Source of the keplerian elements: AFSPC